DW1458 Weather Reports


time (UTC)temp
C
wind
direction
speed
KPH
gust
KPH
rain 1hr
cm
rain 24hr
cm
rain mn
cm
humidity
%
barometer
mb
20260506013024 21 114 0.0 0.0 0.00 0.00 0.00 85 1014.5
20260506011527 21 134 0.0 1.6 0.00 0.00 0.00 84 1014.3
20260506010028 21 129 0.0 3.2 0.00 0.00 0.00 83 1014.3
20260506003023 22 138 0.0 4.8 0.00 0.00 0.00 81 1014.2
20260506001524 22 133 1.6 4.8 0.00 0.00 0.00 80 1014.1
20260506000026 22 191 0.0 8.0 0.00 0.00 0.00 79 1014.1
20260505233021 23 131 0.0 6.4 0.00 0.00 0.00 77 1014.3
20260505231524 23 82 1.6 9.7 0.00 0.00 0.00 75 1014.4
20260505230027 23 135 1.6 4.8 0.00 0.00 0.00 74 1014.3
20260505224530 23 56 3.2 9.7 0.00 0.00 0.00 74 1014.3
20260505221503 24 91 3.2 9.7 0.00 0.00 0.00 73 1013.9
20260505220010 24 44 3.2 11.3 0.00 0.00 0.00 71 1013.9
20260505213002 25 179 3.2 14.5 0.00 0.00 0.00 71 1014.2
20260505211503 25 115 3.2 9.7 0.00 0.00 0.00 70 1014.2
20260505210009 25 49 1.6 9.7 0.00 0.00 0.00 68 1014.3
20260505204517 25 141 3.2 9.7 0.00 0.00 0.00 67 1014.4
20260505201504 25 57 1.6 11.3 0.00 0.00 0.00 67 1014.6
20260505200012 25 70 1.6 9.7 0.00 0.00 0.00 68 1014.7
20260505194508 26 80 3.2 11.3 0.00 0.00 0.00 65 1014.9
20260505180020 25 40 3.2 11.3 0.00 0.00 0.00 68 1015.6
20260505164522 24 37 3.2 11.3 0.00 0.00 0.00 67 1015.6
20260505124517 14 199 0.0 1.6 0.00 0.00 0.00 95 1015.5
20260505120027 11 25 0.0 0.0 0.00 0.00 0.00 94 1015.0
20260505113025 11 239 0.0 0.0 0.00 0.00 0.00 93 1014.5
20260505111521 10 222 0.0 3.2 0.00 0.00 0.00 93 1014.3
20260505101508 11 131 0.0 0.0 0.00 0.00 0.00 93 1014.2
20260505100006 11 131 0.0 0.0 0.00 0.00 0.00 93 1014.3
20260505094518 11 131 0.0 0.0 0.00 0.00 0.00 93 1014.1
20260505093014 11 131 0.0 0.0 0.00 0.00 0.00 93 1014.2
20260505091517 11 131 0.0 0.0 0.00 0.00 0.00 93 1014.1
20260505090008 11 131 0.0 0.0 0.00 0.00 0.00 93 1014.0
20260505084508 11 131 0.0 0.0 0.00 0.00 0.00 92 1013.9
20260505083014 11 131 0.0 0.0 0.00 0.00 0.00 92 1013.8
20260505081515 11 131 0.0 0.0 0.00 0.00 0.00 92 1013.8
20260505080022 11 131 0.0 0.0 0.00 0.00 0.00 92 1013.8
20260505074507 11 131 0.0 0.0 0.00 0.00 0.00 92 1014.1
20260505073010 11 131 0.0 0.0 0.00 0.00 0.00 92 1014.0
20260505071513 11 131 0.0 0.0 0.00 0.00 0.00 92 1014.0
20260505070029 11 131 0.0 0.0 0.00 0.00 0.00 92 1014.2
20260505064524 11 131 0.0 0.0 0.00 0.00 0.00 91 1014.3
20260505063009 12 131 0.0 0.0 0.00 0.00 0.00 92 1014.6
20260505061520 12 131 0.0 0.0 0.00 0.00 0.00 91 1014.9
20260505060018 12 131 0.0 0.0 0.00 0.00 0.00 91 1015.0
20260505054525 12 131 0.0 0.0 0.00 0.00 0.00 91 1014.9
20260505053029 12 131 0.0 0.0 0.00 0.00 0.00 91 1015.3
20260505051520 12 131 0.0 0.0 0.00 0.00 0.00 90 1015.4
20260505041537 13 131 0.0 0.0 0.00 0.00 0.00 88 1015.4
20260505040018 13 131 0.0 0.0 0.00 0.00 0.00 88 1015.5
20260505034524 13 131 0.0 0.0 0.00 0.00 0.00 87 1015.8
20260505033022 13 131 0.0 0.0 0.00 0.00 0.00 85 1015.5
20260505031537 14 131 0.0 0.0 0.00 0.00 0.00 84 1015.9
20260505024517 15 131 0.0 0.0 0.00 0.00 0.00 81 1015.7
20260505023023 15 131 0.0 0.0 0.00 0.00 0.00 80 1015.4
20260505021523 15 131 0.0 0.0 0.00 0.00 0.00 78 1015.2
20260505014510 16 131 0.0 0.0 0.00 0.00 0.00 75 1015.4